Location: Godiavel Galaoual
(15.2485°N, 12.6604°W)
Time: 18:54:13
(UTC+00:00)

Transit 4A - Visible Passes

Search period start: 18 June 2021 00:00
Search period end: 28 June 2021 00:00
Orbit: 872 x 973 km, 66.8° (Epoch: 18 June)

Date Brightness Start Highest point End Pass type
(mag) Time Alt. Az. Time Alt. Az. Time Alt. Az.
18 Jun 8.0 20:17:59 10° N 20:23:42 56° ENE 20:27:54 19° SE visible
18 Jun 10.3 22:07:44 10° W 22:09:35 11° WSW 22:11:27 10° SW visible
19 Jun 7.8 20:27:07 10° NNW 20:32:58 86° WSW 20:37:45 17° SSE visible
20 Jun 8.5 20:36:33 10° NW 20:42:12 51° WSW 20:47:41 11° S visible
21 Jun 9.4 20:46:23 10° NW 20:51:24 30° WSW 20:56:30 10° SSW visible
22 Jun 10.2 20:56:53 10° WNW 21:00:35 17° WSW 21:04:20 10° SW visible
25 Jun 9.1 19:36:53 10° NW 19:42:22 42° WSW 19:47:58 10° S visible
26 Jun 10.0 19:46:55 10° NW 19:51:34 25° WSW 19:56:19 10° SSW visible
27 Jun 10.4 19:57:50 10° WNW 20:00:45 14° WSW 20:03:42 10° SW visible
